Tracking 30995 objects as of 5-Jul-2025
HD Live streaming from Space Station
objects crossing your sky now

CENTAURI-1

Track CENTAURI-1 now!
10-day predictions
CENTAURI-1 is classified as:


NORAD ID: 43809
Int'l Code: 2018-099BD
Perigee: 526.7 km
Apogee: 550.7 km
Inclination: 97.5 °
Period: 95.3 minutes
Semi major axis: 6909 km
RCS: Unknown
Launch date: December 3, 2018
Source: Australia (AUS)
Launch site: AIR FORCE WESTERN TEST RANGE (AFWTR)

Uplink (MHz):
Downlink (MHz): 400.625
Beacon (MHz):
Mode: 9600bps FSK
Call sign:
Status: Inactive

Your satellite tracking list
STARLINK-5619
Track 1 satellite(s)




NASA's NSSDC Master Catalog

Two Line Element Set (TLE):
1 43809U 18099BD  25186.62063925  .00004733  00000-0  28211-3 0  9990
2 43809  97.4747 240.8644 0017394  88.6820 271.6403 15.11522153360062
Source of the keplerian elements: AFSPC